Location: Belloy
(55.7522°N, 118.2333°W)
Time: 00:09:35
(UTC+00:00)

Envisat - Pass Details

Date: 02 December 2021
Orbit: 764 x 766 km, 98.2° (Epoch: 27 January)

Event Time Altitude Azimuth Distance (km) Brightness Sun altitude
Rises 11:44:50 0° 23° (NNE) 3,249 6.7 -34.5°
Reaches altitude 10° 11:47:45 10° 40° (NE) 2,317 6.0 -34.1°
Maximum altitude 11:51:31 21° 88° (E) 1,699 5.4 -33.6°
Drops below altitude 10° 11:55:17 10° 136° (SE) 2,304 5.8 -33.0°
Sets 11:58:09 0° 152° (SSE) 3,224 6.5 -32.6°
